Tracking 19634 objects as of 23-May-2019
HD Live streaming from Space Station
objects crossing your sky now

NJUST-1

Track NJUST-1 now!
10-day predictions
NJUST-1 is classified as:


NORAD ID: 42722
Int'l Code: 1998-067MB
Perigee: 294.7 km
Apogee: 300.7 km
Inclination: 51.6 °
Period: 90.3 minutes
Semi major axis: 6668 km
RCS: Unknown
Launch date: November 20, 1998
Source: People's Republic of China (PRC)
Launch site: TYURATAM MISSILE AND SPACE COMPLEX (TTMTR)

Uplink (MHz):
Downlink (MHz): 436.570
Beacon (MHz):
Mode: 1200bps BPSK
Call sign: BI4ST
Status: Active

aabbcc
Your satellite tracking list
Your tracking list is empty




NASA's NSSDC Master Catalog

Two Line Element Set (TLE):
1 42722U 98067MB  19143.32555752  .00100328  15098-4  27125-3 0  9990
2 42722  51.6343  48.4318 0004511 114.1937 349.5231 15.94189332114228
Source of the keplerian elements: AMSAT